Weather in Menzhinskoye

Russia / Tyumen Oblast     55°46′31″N   69°52′22″E
temp.,
°C
wind,
m/s
gust,
m/s
humid.,
%
clouds,
%
prec.,
mm/h
press.,
hPa
HPBL,
m
20 april, tue
tue2023:00−5ne26505 0.0 1033274
02:00−5nne24500 0.0 1033256
05:00−6nne12540 0.0 103448
08:00−4nw23410 0.0 1034903
11:00−1w44312 0.0 10321211
14:00+2w56285 0.0 10291328
17:00+4w69345 0.0 10281555
20:000wsw4105739 0.0 1026169
21 april, wed
wed2123:00+1w5145974 0.0 1025318
02:00+1w51365100 0.0 1024321
05:00−1nw4108057 0.0 1025206
08:00+3n587858 0.0 1027598
11:00+5n57545 0.0 10281234
14:00+8n67395 0.0 10291562
17:00+8nne67405 0.0 10311670
20:00+4ne37560 0.0 1034143
22 april, thu
thu2223:00+1e48680 0.0 1037233
02:00−1e36774 0.0 1039166
05:00−2ese36795 0.0 1041199
08:00+1se45540 0.0 1043653
11:00+5se45400 0.0 10431073
14:00+8sse55335 0.0 10421298
17:00+8sse55331 0.0 10421309
20:00+4sse375086 0.0 1043134
23 april, fri
fri2323:00+2sse4115647 0.0 1042232
02:00+1sse5126287 0.0 1042288
05:00+1sse5126879 0.0 1042246
08:00+4s61156100 0.0 1042434
11:00+9s6840100 0.0 10411115
14:00+11s673392 0.0 10391554
17:00+11s5732100 0.0 10371634
20:00+8sse4847100 0.0 1037183
24 april, sat
sat2423:00+6sse4952100 0.0 1036220
02:00+4sse496099 0.0 1035200
05:00+3sse41062100 0.0 1034209
08:00+6sse6104999 0.0 1033398
11:00+11s7834100 0.0 10311238
14:00+12s6729100 0.0 10301763
17:00+12sse4732100 0.0 10281174
20:00+9se41040100 0.0 1028273